Regional Weather Roundup
Issued by NWS

Home | Current Version | Previous Version | Graphics & Text | Print | Product List | Glossary On
Versions: 1 2 3 4 5 6 7 8 9 10 11 12 13 14 15 16 17 18 19 20 21 22 23 24 25 26 27 28 29 30 31 32 33 34 35 36 37 38 39 40 41 42 43 44 45 46 47 48 49 50
000
ASUS43 KOAX 030510
RWRNE

WEATHER ROUNDUP FOR NEBRASKA
NATIONAL WEATHER SERVICE OMAHA NE
1100 PM CST MON MAR 02 2015

NOTES: SATELLITE DATA IS BEING USED TO AUGMENT CLOUD COVER ABOVE
       12000 FEET.
       "FAIR" INDICATES FEW OR NO CLOUDS BELOW 12,000 FEET WITH NO
       SIGNIFICANT WEATHER AND/OR OBSTRUCTIONS TO VISIBILITY.

  * THESE STATIONS DO NOT REPORT WEATHER SUCH AS RAIN...SNOW OR FOG.

NEZ001>004-019>022-054>056-030600-
NEBRASKA PANHANDLE

CITY           SKY/WX    TMP DP  RH WIND       PRES   REMARKS
SCOTTSBLUFF    CLOUDY    30  24  78 E10       29.65F WCI  21
ALLIANCE       CLOUDY    29  25  85 SW8       29.67R WCI  21
CHADRON        LGT SNOW  31  26  82 SW3       29.68R
KIMBALL        CLOUDY    28  27  96 N3        29.60F FOG
SIDNEY         CLOUDY    29  27  92 NW14      29.64R FOG     WCI  18
$$

NEZ057>060-069>072-079>082-030600-
SOUTHWEST NEBRASKA

CITY           SKY/WX    TMP DP  RH WIND       PRES   REMARKS
NORTH PLATTE   CLOUDY    29  22  75 SE10      29.67F WCI  20
IMPERIAL         N/A     31  27  85 SE13      29.60F FOG     WCI  21
LEXINGTON      CLOUDY    30  21  69 SE15      29.72F WCI  19
MCCOOK         CLOUDY    31  23  72 SE14      29.67F WCI  21
OGALLALA       CLOUDY    29  28  97 SE9       29.63F FOG     WCI  21
$$

NEZ005>010-023>029-035>040-094-030600-
NORTH CENTRAL NEBRASKA

CITY           SKY/WX    TMP DP  RH WIND       PRES   REMARKS
VALENTINE      CLOUDY    32  23  69 S10       29.69F WCI  24
AINSWORTH      CLOUDY    31  20  65 S13       29.70F WCI  21
BROKEN BOW     CLOUDY    30  18  60 S16G24    29.72F WCI  19
O`NEILL        CLOUDY    32  17  55 S12G18    29.79F WCI  23
ORD            CLOUDY    29  15  56 S14       29.77F WCI  18
THEDFORD       CLOUDY    30  25  80 S15       29.68F WCI  19
$$

NEZ041-046>049-061>064-073>077-083>087-030600-
SOUTH CENTRAL NEBRASKA

CITY           SKY/WX    TMP DP  RH WIND       PRES   REMARKS
GRAND ISLAND   CLOUDY    29  19  66 S15       29.83F WCI  18
AURORA         MOCLDY    30  20  66 S12       29.84F WCI  20
HASTINGS       CLOUDY    29  19  66 S13       29.81F WCI  19
HEBRON         FAIR      31  22  71 S12       29.88F WCI  22
HOLDREGE       CLOUDY    29  19  67 SE16      29.75F WCI  17
KEARNEY *      CLOUDY    28  18  64 S16       29.78F WCI  17
YORK           MOCLDY    30  21  69 S13       29.86F WCI  20
$$

NEZ011>018-030>034-042>045-030600-
NORTHEAST NEBRASKA

CITY           SKY/WX    TMP DP  RH WIND       PRES   REMARKS
NORFOLK        FAIR      31  18  58 S14       29.85F WCI  21
ALBION         FAIR      30  16  56 S15       29.82F WCI  19
BLAIR          CLOUDY    33  20  59 S15G24    29.93F WCI  22
COLUMBUS *     FAIR      30  14  51 S15       29.88F WCI  19
FREMONT        CLOUDY    33  20  59 SE14      29.92F WCI  23
TEKAMAH        MOCLDY    32  20  61 SE15      29.94F WCI  22
WAYNE          FAIR      31  20  62 S14       29.89F WCI  21
$$

NEZ050>053-065>068-078-088>093-030600-
SOUTHEAST NEBRASKA

CITY           SKY/WX    TMP DP  RH WIND       PRES   REMARKS
LINCOLN        CLOUDY    32  21  64 S15       29.94F WCI  22
OMAHA EPPLEY   CLOUDY    33  20  58 S16       29.96F WCI  23
BEATRICE       CLOUDY    32  23  69 S9G16     29.91F WCI  24
FALLS CITY     CLOUDY    34  21  59 S16G22    29.98F WCI  24
NEBRASKA CITY  CLOUDY    32  18  55 S12       29.96F WCI  23
PLATTSMOUTH    CLOUDY    32  18  56 SE13      29.95F WCI  22
$$

NEZ044-045-051>053-067-030600-
OMAHA AREA

CITY           SKY/WX    TMP DP  RH WIND       PRES   REMARKS
OMAHA EPPLEY   CLOUDY    33  20  58 S16       29.96F WCI  23
BLAIR          CLOUDY    33  20  59 S15G24    29.93F WCI  22
FREMONT        CLOUDY    33  20  59 SE14      29.92F WCI  23
MILLARD        CLOUDY    33  20  59 SE13      29.95F WCI  23
OFFUTT AFB     CLOUDY    32  20  61 SE13      29.95F WCI  22
PLATTSMOUTH    CLOUDY    32  18  56 SE13      29.95F WCI  22
WAHOO          CLOUDY    33  19  58 S15G24    29.92F WCI  22
$$



USA.gov is the U.S. government's official web portal to all federal, state and local government web resources and services.